Lincoln County, Oregon, United States
Lat: 44.65N, Lon: 123.85W
Wx Zone: ORZ004
Local Info
Past Weather Observations for Yesterday

NOTE: This archive is for the closest National Weather Service station to Lincoln County. Information may differ from the station used for current weather conditions.

Click here for Long-term Archive

Time Weather Temperature Dewpoint Humidity Pressure Winds Precip Visibility
23:55
Clear
55°F / 13°C 52°F / 11°C 88% 30.04 in
(1017 mb)
SSE 5.8 mph
(SSE 9 kph)
- 10SM
23:35
Clear
55°F / 13°C 52°F / 11°C 88% 30.04 in
(1017 mb)
SSE 4.6 mph
(SSE 7 kph)
- 10SM
23:15
Clear
55°F / 13°C 52°F / 11°C 88% 30.04 in
(1017 mb)
SSE 6.9 mph
(SSE 11 kph)
- 10SM
22:55
Clear
55°F / 13°C 52°F / 11°C 88% 30.04 in
(1017 mb)
S 6.9 mph
(S 11 kph)
- 10SM
22:35
Clear
55°F / 13°C 52°F / 11°C 88% 30.01 in
(1016 mb)
SSE 5.8 mph
(SSE 9 kph)
- 10SM
22:15
Clear
55°F / 13°C 52°F / 11°C 88% 30.01 in
(1016 mb)
SSE 5.8 mph
(SSE 9 kph)
- 10SM
21:55
Clear
55°F / 13°C 52°F / 11°C 88% 30.01 in
(1016 mb)
SSE 5.8 mph
(SSE 9 kph)
- 10SM
21:35
Clear
55°F / 13°C 52°F / 11°C 88% 30.01 in
(1016 mb)
SSE 5.8 mph
(SSE 9 kph)
- 10SM
21:15
Partly Cloudy
55°F / 13°C 52°F / 11°C 88% 30.01 in
(1016 mb)
SSE 6.9 mph
(SSE 11 kph)
- 10SM
20:55
Partly Cloudy
55°F / 13°C 52°F / 11°C 88% 30.01 in
(1016 mb)
SSE 6.9 mph
(SSE 11 kph)
- 10SM
20:35
Mostly Cloudy
55°F / 13°C 52°F / 11°C 88% 30.01 in
(1016 mb)
SSE 5.8 mph
(SSE 9 kph)
- 10SM
20:15
Partly Cloudy
54°F / 12°C 52°F / 11°C 94% 30.01 in
(1016 mb)
SSE 5.8 mph
(SSE 9 kph)
- 10SM
19:55
Partly Cloudy
55°F / 13°C 52°F / 11°C 88% 29.98 in
(1015 mb)
SSE 6.9 mph
(SSE 11 kph)
- 10SM
19:35
Partly Cloudy
54°F / 12°C 52°F / 11°C 94% 29.98 in
(1015 mb)
SSE 6.9 mph
(SSE 11 kph)
- 10SM
19:15
Mostly Cloudy
Light Rain
55°F / 13°C 52°F / 11°C 88% 29.98 in
(1015 mb)
SE 4.6 mph
(SE 7 kph)
- 10SM
18:55
Mostly Cloudy
55°F / 13°C 52°F / 11°C 88% 29.98 in
(1015 mb)
SSE 4.6 mph
(SSE 7 kph)
- 10SM
18:35
Mostly Cloudy
55°F / 13°C 52°F / 11°C 88% 29.98 in
(1015 mb)
SE 3.5 mph
(SE 6 kph)
- 10SM
18:15
Partly Cloudy
54°F / 12°C 52°F / 11°C 94% 29.98 in
(1015 mb)
SE 3.5 mph
(SE 6 kph)
- 10SM
17:55
Clear
54°F / 12°C 52°F / 11°C 94% 29.98 in
(1015 mb)
SE 4.6 mph
(SE 7 kph)
- 10SM
17:35
Partly Cloudy
54°F / 12°C 52°F / 11°C 94% 29.98 in
(1015 mb)
SE 3.5 mph
(SE 6 kph)
- 10SM
17:15
Partly Cloudy
Fog And Mist
55°F / 13°C 52°F / 11°C 88% 29.98 in
(1015 mb)
S 6.9 mph
(S 11 kph)
- 5SM
16:55
Partly Cloudy
Light Rain
55°F / 13°C 54°F / 12°C 94% 29.98 in
(1015 mb)
S 6.9 mph
(S 11 kph)
- 5SM
16:35
Partly Cloudy
Fog And Mist
57°F / 14°C 54°F / 12°C 88% 29.98 in
(1015 mb)
S 5.8 mph
(S 9 kph)
- 5SM
16:15
Clear
57°F / 14°C 54°F / 12°C 88% 29.98 in
(1015 mb)
S 6.9 mph
(S 11 kph)
- 7SM
15:55
Clear
59°F / 15°C 54°F / 12°C 82% 29.98 in
(1015 mb)
S 6.9 mph
(S 11 kph)
- 7SM
15:35
Partly Cloudy
59°F / 15°C 54°F / 12°C 82% 29.98 in
(1015 mb)
S 9.2 mph
(S 15 kph)
- 7SM
15:15
Partly Cloudy
59°F / 15°C 54°F / 12°C 82% 29.98 in
(1015 mb)
SSE 10.4 mph
(SSE 17 kph)
- 7SM
14:55
Partly Cloudy
Hazy
61°F / 16°C 55°F / 13°C 83% 29.98 in
(1015 mb)
S 13.8 mph
(S 22 kph)
- 5SM
14:35
Partly Cloudy
Fog And Mist
59°F / 15°C 55°F / 13°C 88% 29.98 in
(1015 mb)
S 10.4 mph
(S 17 kph)
- 5SM
14:15
Clear
Fog And Mist
59°F / 15°C 54°F / 12°C 82% 29.98 in
(1015 mb)
S 8.1 mph
(S 13 kph)
- 5SM
13:55
Partly Cloudy
Fog And Mist
59°F / 15°C 54°F / 12°C 82% 29.98 in
(1015 mb)
SSE 11.5 mph
(SSE 19 kph)
- 4SM
13:35
Partly Cloudy
Hazy
59°F / 15°C 54°F / 12°C 82% 29.98 in
(1015 mb)
S 10.4 mph
(S 17 kph)
- 5SM
13:15
Clear
Hazy
59°F / 15°C 52°F / 11°C 77% 29.98 in
(1015 mb)
S 10.4 mph
(S 17 kph)
- 5SM
12:55
Clear
Fog And Mist
59°F / 15°C 55°F / 13°C 88% 29.98 in
(1015 mb)
SSE 13.8 mph
(SSE 22 kph)
- 5SM
12:35
Clear
Hazy
59°F / 15°C 54°F / 12°C 82% 29.95 in
(1014 mb)
SSE 12.7 mph
(SSE 20 kph)
- 5SM
12:15
Clear
Hazy
59°F / 15°C 54°F / 12°C 82% 29.95 in
(1014 mb)
SSE 13.8 mph
(SSE 22 kph)
- 5SM
11:55
Partly Cloudy
Hazy
59°F / 15°C 54°F / 12°C 82% 29.95 in
(1014 mb)
SSE 11.5 mph
(SSE 19 kph)
- 5SM
11:35
Partly Cloudy
Hazy
59°F / 15°C 54°F / 12°C 82% 29.95 in
(1014 mb)
SSE 11.5 mph
(SSE 19 kph)
- 5SM
11:15
Partly Cloudy
Hazy
59°F / 15°C 54°F / 12°C 82% 29.95 in
(1014 mb)
SW 13.8 mph
(SW 22 kph)
- 5SM
10:55
Clear
Fog And Mist
59°F / 15°C 55°F / 13°C 88% 29.95 in
(1014 mb)
SSE 12.7 mph
(SSE 20 kph)
- 4SM
10:35
Clear
Fog And Mist
59°F / 15°C 55°F / 13°C 88% 29.92 in
(1013 mb)
SSE 11.5 mph
(SSE 19 kph)
- 5SM
10:15
Clear
Fog And Mist
59°F / 15°C 55°F / 13°C 88% 29.92 in
(1013 mb)
S 15 mph
(S 24 kph)
- 4SM
09:55
Partly Cloudy
Fog And Mist
59°F / 15°C 55°F / 13°C 88% 29.92 in
(1013 mb)
SSE 12.7 mph
(SSE 20 kph)
- 4SM
09:35
Fog And Mist
57°F / 14°C 55°F / 13°C 94% 29.92 in
(1013 mb)
SSE 12.7 mph
(SSE 20 kph)
- 3SM
09:15
Overcast
Fog And Mist
57°F / 14°C 55°F / 13°C 94% 29.92 in
(1013 mb)
SSE 11.5 mph
(SSE 19 kph)
- 3SM
09:00
Overcast
Fog And Mist
57°F / 14°C 55°F / 13°C 94% 29.92 in
(1013 mb)
S 10.4 mph
(S 17 kph)
- 2 1/2SM
08:35
Clear
Fog And Mist
57°F / 14°C 55°F / 13°C 94% 29.89 in
(1012 mb)
SSE 11.5 mph
(SSE 19 kph)
- 4SM
08:15
Mostly Cloudy
Fog And Mist
55°F / 13°C 54°F / 12°C 94% 29.89 in
(1012 mb)
S 12.7 mph
(S 20 kph)
- 4SM
07:55
Overcast
Fog And Mist
55°F / 13°C 54°F / 12°C 94% 29.89 in
(1012 mb)
SW 10.4 mph
(SW 17 kph)
- 3SM
07:35
Mostly Cloudy
Fog And Mist
55°F / 13°C 54°F / 12°C 94% 29.86 in
(1011 mb)
SW 10.4 mph
(SW 17 kph)
- 4SM
07:15
Mostly Cloudy
Fog And Mist
55°F / 13°C 54°F / 12°C 94% 29.86 in
(1011 mb)
SSE 10.4 mph
(SSE 17 kph)
- 4SM
06:55
Partly Cloudy
Light Rain
55°F / 13°C 55°F / 13°C 100% 29.86 in
(1011 mb)
SSE 12.7 mph
(SSE 20 kph)
- 4SM
06:35
Overcast
Fog And Mist
55°F / 13°C 55°F / 13°C 100% 29.83 in
(1010 mb)
SSE 12.7 mph
(SSE 20 kph)
- 5SM
06:15
Overcast
Fog And Mist
55°F / 13°C 54°F / 12°C 94% 29.83 in
(1010 mb)
S 10.4 mph
(S 17 kph)
- 5SM
05:55
Overcast
Fog And Mist
55°F / 13°C 54°F / 12°C 94% 29.83 in
(1010 mb)
SW 13.8 mph
(SW 22 kph)
0.03 in
(0.76 mm)
5SM
05:35
Overcast
Light Rain
54°F / 12°C 54°F / 12°C 100% 29.8 in
(1009 mb)
SSE 15 mph
(SSE 24 kph)
0.03 in
(0.76 mm)
5SM
05:15
Overcast
Light Rain
54°F / 12°C 52°F / 11°C 94% 29.8 in
(1009 mb)
SW 15 mph
(SW 24 kph)
0.02 in
(0.51 mm)
5SM
04:55
Overcast
Rain
55°F / 13°C 54°F / 12°C 94% 29.8 in
(1009 mb)
SSE 15 mph
(SSE 24 kph)
0.19 in
(4.83 mm)
4SM
04:35
Overcast
Rain
55°F / 13°C 55°F / 13°C 100% 29.77 in
(1008 mb)
SW 11.5 mph
(SW 19 kph)
0.10 in
(2.54 mm)
3SM
04:15
Mostly Cloudy
Rain
55°F / 13°C 55°F / 13°C 100% 29.8 in
(1009 mb)
SW 8.1 mph
(SW 13 kph)
- 5SM
03:55
Overcast
Fog And Mist
55°F / 13°C 55°F / 13°C 100% 29.8 in
(1009 mb)
SSE 9.2 mph
(SSE 15 kph)
0.01 in
(0.25 mm)
5SM
03:35
Overcast
Fog And Mist
55°F / 13°C 55°F / 13°C 100% 29.8 in
(1009 mb)
S 8.1 mph
(S 13 kph)
0.01 in
(0.25 mm)
5SM
03:15
Overcast
Drizzle
55°F / 13°C 54°F / 12°C 94% 29.8 in
(1009 mb)
SSE 13.8 mph
(SSE 22 kph)
- 5SM
02:55
Overcast
Rain
55°F / 13°C 54°F / 12°C 94% 29.8 in
(1009 mb)
SW 16.1 mph
(SW 26 kph)
0.10 in
(2.54 mm)
2 1/2SM
02:35
Overcast
Rain
55°F / 13°C 54°F / 12°C 94% 29.8 in
(1009 mb)
SW 15 mph
(SW 24 kph)
0.06 in
(1.52 mm)
4SM
02:15
Overcast
Light Rain
55°F / 13°C 55°F / 13°C 100% 29.8 in
(1009 mb)
S 15 mph
(S 24 kph)
0.01 in
(0.25 mm)
5SM
01:35
Overcast
Rain
57°F / 14°C 55°F / 13°C 94% 29.77 in
(1008 mb)
S 15 mph
(S 24 kph)
0.01 in
(0.25 mm)
5SM
01:15
Overcast
Light Rain
57°F / 14°C 55°F / 13°C 94% 29.77 in
(1008 mb)
S 12.7 mph
(S 20 kph)
- 5SM
00:55
Overcast
Heavy Rain
55°F / 13°C 55°F / 13°C 100% 29.8 in
(1009 mb)
SSE 8.1 mph
(SSE 13 kph)
0.13 in
(3.30 mm)
2SM
00:35
Overcast
Light Rain
55°F / 13°C 54°F / 12°C 94% 29.8 in
(1009 mb)
S 8.1 mph
(S 13 kph)
- 7SM
00:15
Mostly Cloudy
55°F / 13°C 54°F / 12°C 94% 29.8 in
(1009 mb)
SSE 8.1 mph
(SSE 13 kph)
- 7SM
Time Weather Temperature Dewpoint Humidity Pressure Winds Precip Visibility


Weather for websites

WeatherForYou.com, LLC is not responsible for any damages or problems caused by this service. Current weather conditions are obtained from the closest station including government and personal stations which may have varying degrees of accuracy. Weather forecasts are derived from the NOAA NDFD. Like all things, this site belongs to Jesus Christ... He just trusts me to maintain it. If you have any questions or comments email webmaster@weatherforyou.com

Copyright © 2014, WeatherForYou.com LLC. All rights reserved.